London, United Kingdom

9:59 PM BST on September 19, 2017 (GMT +0100)
Heathrow

Weather History for EGLL - June, 2014

Change the Weather History Date:

Saturday, June 7, 2014

  Actual Average Record
Temperature  
Mean Temperature 66 °F -  
Max Temperature 72 °F 68 °F 80 °F (2004)
Min Temperature 59 °F 53 °F 42 °F (2005)
Growing Degree Days 16 (Base 50)    
Moisture  
Dew Point 54 °F    
Average Humidity 68    
Maximum Humidity 94    
Minimum Humidity 35    
Precipitation  
Precipitation 0.16 in - - ()
Sea Level Pressure  
Sea Level Pressure 29.88 in    
Wind  
Wind Speed 8 mph ()    
Max Wind Speed 16 mph    
Max Gust Speed 23 mph    
Visibility 8.2 miles    
Events Rain    
Averages and records for this station are not official NWS values.
T = Trace of Precipitation, MM = Missing Value Source: Averaged Metar Reports

Daily Weather History Graph

Daily Weather History Graph

Search for Another Location

Airport or City:

Trip Planner

Search our weather history database for the weather conditions in past years. The results will help you decide how hot, cold, wet, or windy it might be!

Date:

Astronomy

Jun. 07, 2014 Rise Set
Actual Time 4:46 AM BST 9:15 PM BST
Civil Twilight 4:00 AM BST 10:01 PM BST
Nautical Twilight 2:50 AM BST 11:12 PM BST
Astronomical Twilight 1:33 AM BST 12:28 AM BST
Moon 2:38 PM BST (6/7) 1:43 AM BST (6/7)
Length of Visible Light 18h 01m
Length of Day
16h 28m
Waxing Gibbous, 65% of the Moon is Illuminated
Jun 7
Waxing Gibbous
Jun 13
Full
Jun 19
Last Quarter
Jun 27
New
Jul 5
First Quarter

Hourly Weather History & Observations

Time (BST) Temp. Dew Point Humidity Pressure Visibility Wind Dir Wind Speed Gust Speed Precip Events Conditions
12:00 AM 62 °F 50 °F 56% 29.87 in 16 mi East 8.1 mph - -   Partly Cloudy
12:20 AM 60.8 °F 51.8 °F 72% 29.86 in - East 10.4 mph - N/A   Clear
12:50 AM 60.8 °F 51.8 °F 72% 29.86 in - East 6.9 mph - N/A   Clear
1:00 AM 61 °F 51 °F 62% 29.86 in 13 mi ENE 6.9 mph - -   Scattered Clouds
1:20 AM 60.8 °F 51.8 °F 72% 29.86 in 6.2 mi ENE 8.1 mph - N/A   Unknown
1:50 AM 60.8 °F 53.6 °F 77% 29.83 in 6.2 mi ENE 5.8 mph - N/A   Unknown
2:00 AM 61 °F 52 °F 64% 29.84 in 10 mi ENE 6.9 mph - -   Partly Cloudy
2:20 AM 60.8 °F 53.6 °F 77% 29.83 in 6.2 mi East 8.1 mph - N/A   Unknown
2:50 AM 59.0 °F 53.6 °F 82% 29.83 in - ENE 5.8 mph - N/A   Clear
3:00 AM 60 °F 52 °F 68% 29.83 in 13 mi ENE 5.8 mph - -   Scattered Clouds
3:20 AM 59.0 °F 53.6 °F 82% 29.83 in - ENE 5.8 mph - N/A   Clear
3:50 AM 59.0 °F 53.6 °F 82% 29.80 in 6.2 mi ENE 4.6 mph - N/A   Unknown
4:00 AM 60 °F 53 °F 69% 29.82 in 11 mi ENE 6.9 mph - -  
4:20 AM 59.0 °F 53.6 °F 82% 29.80 in - ENE 4.6 mph - N/A   Clear
4:50 AM 59.0 °F 55.4 °F 88% 29.80 in - ENE 5.8 mph - N/A   Clear
5:00 AM 59 °F 53 °F 75% 29.80 in 8 mi NE 5.8 mph - -   Partly Cloudy
5:20 AM 60.8 °F 55.4 °F 82% 29.80 in - ENE 5.8 mph - N/A   Clear
5:50 AM 60.8 °F 55.4 °F 82% 29.83 in 6.2 mi ESE 8.1 mph - N/A   Partly Cloudy
6:00 AM 60 °F 54 °F 76% 29.83 in 9 mi ESE 6.9 mph - -   Mostly Cloudy
6:20 AM 59.0 °F 55.4 °F 88% 29.80 in 6.2 mi East 5.8 mph - N/A   Partly Cloudy
6:50 AM 60.8 °F 55.4 °F 82% 29.80 in 6.2 mi ENE 6.9 mph - N/A   Partly Cloudy
7:00 AM 61 °F 55 °F 75% 29.80 in 7 mi ENE 5.8 mph - - Rain Light Rain Showers
7:20 AM 60.8 °F 57.2 °F 88% 29.80 in 6.2 mi Variable 2.3 mph - N/A Rain Light Rain Showers
7:50 AM 60.8 °F 57.2 °F 88% 29.80 in 6.2 mi East 8.1 mph - N/A Rain Light Rain Showers
8:00 AM 61 °F 57 °F 84% 29.80 in 5 mi East 9.2 mph - - Rain Rain
8:20 AM 62.6 °F 59.0 °F 88% 29.74 in 6.2 mi NE 8.1 mph - N/A Rain Light Rain Showers
8:50 AM 62.6 °F 59.0 °F 88% 29.80 in 6.2 mi South 9.2 mph - N/A   Partly Cloudy
9:00 AM 62 °F 58 °F 84% 29.80 in 11 mi South 8.1 mph - - Rain Rain
9:20 AM 62.6 °F 59.0 °F 88% 29.80 in 6.2 mi SSE 8.1 mph - N/A   Partly Cloudy
9:50 AM 64.4 °F 59.0 °F 83% 29.86 in 6.2 mi South 8.1 mph - N/A Rain Light Rain Showers
10:00 AM 65 °F 59 °F 75% 29.86 in 9 mi South 10.4 mph - - Rain Light Rain Showers
10:20 AM 62.6 °F 59.0 °F 88% 29.89 in 3.7 mi South 11.5 mph - N/A Rain Rain Showers
10:50 AM 62.6 °F 60.8 °F 94% 29.89 in 6.2 mi South 8.1 mph - N/A   Partly Cloudy
11:00 AM 63 °F 60 °F 87% 29.88 in 14 mi South 9.2 mph - - Rain Rain
11:20 AM 64.4 °F 60.8 °F 88% 29.86 in 6.2 mi SW 8.1 mph - N/A   Partly Cloudy
11:50 AM 66.2 °F 60.8 °F 83% 29.86 in 6.2 mi SW 11.5 mph - N/A   Scattered Clouds
12:00 PM 67 °F 63 °F 83% 29.86 in 13 mi SW 10.4 mph - -   Scattered Clouds
12:20 PM 66.2 °F 59.0 °F 78% 29.86 in 6.2 mi West 13.8 mph - N/A   Scattered Clouds
12:50 PM 68.0 °F 57.2 °F 68% 29.89 in 6.2 mi West 16.1 mph - N/A   Mostly Cloudy
1:00 PM 68 °F 57 °F 60% 29.88 in 25 mi WSW 13.8 mph - -   Scattered Clouds
1:20 PM 68.0 °F 57.2 °F 68% 29.89 in 6.2 mi West 10.4 mph - N/A   Partly Cloudy
1:50 PM 69.8 °F 57.2 °F 64% 29.89 in 6.2 mi WSW 9.2 mph - N/A   Partly Cloudy
2:00 PM 69 °F 57 °F 56% 29.89 in 19 mi WSW 8.1 mph - -   Scattered Clouds
2:20 PM 69.8 °F 53.6 °F 56% 29.89 in 6.2 mi West 13.8 mph - N/A   Scattered Clouds
2:50 PM 71.6 °F 55.4 °F 57% 29.89 in 6.2 mi WSW 10.4 mph - N/A   Scattered Clouds
3:00 PM 71 °F 54 °F 46% 29.90 in 25 mi WSW 10.4 mph - -   Scattered Clouds
3:20 PM 69.8 °F 53.6 °F 56% 29.92 in 6.2 mi West 12.7 mph - N/A   Scattered Clouds
3:50 PM 69.8 °F 51.8 °F 53% 29.92 in 6.2 mi West 11.5 mph - N/A   Scattered Clouds
4:00 PM 71 °F 53 °F 43% 29.91 in 22 mi WSW 10.4 mph - -   Partly Cloudy
4:20 PM 71.6 °F 51.8 °F 50% 29.92 in 6.2 mi WSW 11.5 mph - N/A   Scattered Clouds
4:50 PM 69.8 °F 51.8 °F 53% 29.92 in 6.2 mi West 11.5 mph - N/A   Scattered Clouds
5:00 PM 70 °F 52 °F 42% 29.92 in 22 mi WSW 9.2 mph - -   Mostly Cloudy
5:20 PM 71.6 °F 51.8 °F 50% 29.92 in 6.2 mi WSW 10.4 mph - N/A   Scattered Clouds
5:50 PM 69.8 °F 51.8 °F 53% 29.92 in 6.2 mi West 11.5 mph - N/A   Scattered Clouds
6:00 PM 71 °F 51 °F 38% 29.93 in 31 mi West 10.4 mph - -   Mostly Cloudy
6:20 PM 71.6 °F 50.0 °F 46% 29.95 in 6.2 mi WSW 10.4 mph - N/A   Scattered Clouds
6:50 PM 71.6 °F 50.0 °F 46% 29.95 in 6.2 mi WSW 12.7 mph - N/A   Scattered Clouds
7:00 PM 71 °F 49 °F 35% 29.94 in 25 mi SW 9.2 mph - -   Scattered Clouds
7:20 PM 69.8 °F 51.8 °F 53% 29.95 in 6.2 mi WSW 11.5 mph - N/A   Partly Cloudy
7:50 PM 69.8 °F 51.8 °F 53% 29.95 in 6.2 mi SSW 11.5 mph - N/A   Partly Cloudy
8:00 PM 69 °F 51 °F 42% 29.95 in 19 mi SSW 10.4 mph - -  
8:20 PM 68.0 °F 50.0 °F 52% 29.95 in 6.2 mi SW 11.5 mph - N/A   Partly Cloudy
8:50 PM 66.2 °F 48.2 °F 52% 29.98 in - SW 10.4 mph - N/A   Clear
9:00 PM 66 °F 48 °F 42% 29.97 in 25 mi SW 11.5 mph - -  
9:20 PM 64.4 °F 48.2 °F 56% 29.98 in - SW 9.2 mph - N/A   Clear
9:50 PM 62.6 °F 50.0 °F 63% 30.01 in - SW 11.5 mph 23.0 mph N/A   Clear
10:00 PM 64 °F 50 °F 50% 30.00 in 18 mi SW 10.4 mph - -  
10:20 PM 62.6 °F 51.8 °F 68% 30.01 in - SW 9.2 mph - N/A   Clear
10:50 PM 60.8 °F 51.8 °F 72% 30.01 in - SSW 9.2 mph - N/A   Clear
11:00 PM 61 °F 52 °F 63% 30.01 in 16 mi SSW 6.9 mph - -  
11:20 PM 60.8 °F 51.8 °F 72% 30.01 in - South 6.9 mph - N/A   Clear
11:50 PM 59.0 °F 51.8 °F 77% 30.01 in - SSE 4.6 mph - N/A   Clear